Tracking 29892 objects as of 21-Nov-2024
HD Live streaming from Space Station
objects crossing your sky now

DELTA 1 DEB

Track DELTA 1 DEB now!
10-day predictions


NORAD ID: 10832
Int'l Code: 1976-077CC
Perigee: 1,504.5 km
Apogee: 1,694.4 km
Inclination: 102.2 °
Period: 118.0 minutes
Semi major axis: 7970 km
RCS: 0.094 m2 (small)
Launch date: July 29, 1976
Source: United States (US)
Launch site: AIR FORCE WESTERN TEST RANGE (AFWTR)

Note: This is SATELLITE DEBRIS
Your satellite tracking list
Your tracking list is empty




NASA's NSSDC Master Catalog

Two Line Element Set (TLE):
1 10832U 76077CC  24325.28239215 -.00000073  00000-0 -28214-3 0  9991
2 10832 102.2461 257.1174 0119086 121.6649  46.7695 12.20053035151671
Source of the keplerian elements: AFSPC